Henderson, NV

5:25 AM PDT on October 17, 2017 (GMT -0700)
Henderson

Weather History for KHND - May, 2013

Change the Weather History Date:

Monday, May 27, 2013

  Actual Average (KLAS) Record (KLAS)
Temperature  
Mean Temperature 77 °F -  
Max Temperature 91 °F 93 °F 108 °F (1974)
Min Temperature 63 °F 65 °F 44 °F (1953)
Cooling Degree Days 12    
Growing Degree Days 27 (Base 50)    
Moisture  
Dew Point 28 °F    
Average Humidity 17    
Maximum Humidity 32    
Minimum Humidity 8    
Precipitation  
Precipitation 0.00 in - - ()
Sea Level Pressure  
Sea Level Pressure 29.75 in    
Wind  
Wind Speed 12 mph (SW)    
Max Wind Speed 18 mph    
Max Gust Speed 21 mph    
Visibility 10 miles    
Events      
Averages and records for this station are not official NWS values.
T = Trace of Precipitation, MM = Missing Value Source: NWS Daily Summary

Daily Weather History Graph

Daily Weather History Graph

Search for Another Location

Airport or City:

Trip Planner

Search our weather history database for the weather conditions in past years. The results will help you decide how hot, cold, wet, or windy it might be!

Date:

Astronomy

May. 27, 2013 Rise Set
Actual Time 5:27 AM PDT 7:48 PM PDT
Civil Twilight 4:57 AM PDT 8:18 PM PDT
Nautical Twilight 4:21 AM PDT 8:54 PM PDT
Astronomical Twilight 3:41 AM PDT 9:34 PM PDT
Moon 10:33 PM PDT (5/27) 8:07 AM PDT (5/27)
Length of Visible Light 15h 20m
Length of Day
14h 21m
Waning Gibbous, 90% of the Moon is Illuminated
May 27
Waning Gibbous
May 31
Last Quarter
Jun 8
New
Jun 16
First Quarter
Jun 23
Full

Hourly Weather History & Observations

Time (PDT) Temp. Dew Point Humidity Pressure Visibility Wind Dir Wind Speed Gust Speed Precip Events Conditions
12:56 AM 70.9 °F 32.0 °F 24% 29.81 in 10.0 mi South 15.0 mph - N/A   Clear
1:56 AM 70.0 °F 31.1 °F 24% 29.80 in 10.0 mi South 18.4 mph - N/A   Clear
2:56 AM 66.9 °F 31.1 °F 26% 29.79 in 10.0 mi SSW 17.3 mph - N/A   Clear
3:56 AM 68.0 °F 31.1 °F 25% 29.80 in 10.0 mi South 16.1 mph - N/A   Clear
4:56 AM 63.9 °F 32.9 °F 31% 29.82 in 10.0 mi SSW 13.8 mph - N/A   Clear
5:56 AM 63.0 °F 32.9 °F 32% 29.83 in 10.0 mi South 13.8 mph - N/A   Clear
6:56 AM 66.9 °F 32.9 °F 28% 29.85 in 10.0 mi SSW 15.0 mph - N/A   Clear
7:56 AM 70.0 °F 34.0 °F 27% 29.85 in 10.0 mi SSW 11.5 mph - N/A   Clear
8:56 AM 74.8 °F 32.0 °F 21% 29.84 in 10.0 mi Calm Calm - N/A   Clear
9:56 AM 77.9 °F 31.1 °F 18% 29.83 in 10.0 mi Calm Calm - N/A   Clear
10:56 AM 81.0 °F 29.1 °F 15% 29.82 in 10.0 mi Calm Calm - N/A   Clear
11:56 AM 83.8 °F 27.1 °F 13% 29.81 in 10.0 mi Calm Calm - N/A   Clear
12:56 PM 86.9 °F 27.1 °F 11% 29.78 in 10.0 mi Calm Calm - N/A   Clear
1:56 PM 90.9 °F 27.1 °F 10% 29.75 in 10.0 mi Variable 6.9 mph - N/A   Clear
2:56 PM 90.9 °F 25.2 °F 9% 29.72 in 10.0 mi WSW 6.9 mph - N/A   Clear
3:56 PM 91.9 °F 22.1 °F 8% 29.69 in 10.0 mi SW 13.8 mph - N/A   Clear
4:56 PM 90.9 °F 22.1 °F 8% 29.67 in 10.0 mi West 11.5 mph 18.4 mph N/A   Clear
5:56 PM 90.9 °F 25.2 °F 9% 29.66 in 10.0 mi West 16.1 mph 20.7 mph N/A   Clear
6:56 PM 88.9 °F 24.1 °F 10% 29.66 in 10.0 mi West 12.7 mph - N/A   Clear
7:56 PM 86.0 °F 23.0 °F 10% 29.67 in 10.0 mi WSW 13.8 mph - N/A   Clear
8:56 PM 82.9 °F 23.0 °F 11% 29.66 in 10.0 mi SSW 10.4 mph - N/A   Clear
9:56 PM 81.9 °F 26.1 °F 13% 29.67 in 10.0 mi SSW 16.1 mph - N/A   Clear
10:56 PM 79.9 °F 30.0 °F 16% 29.66 in 10.0 mi SSW 17.3 mph - N/A   Clear
11:56 PM 75.9 °F 28.0 °F 17% 29.65 in 10.0 mi South 15.0 mph - N/A   Clear